Akron Canton, OH

2:46 PM EDT on September 21, 2017 (GMT -0400)
Akron-Canton Regional

Weather History for KCAK - August, 1959

Change the Weather History Date:

Friday, August 14, 1959

  Actual Average Record
Temperature  
Mean Temperature 80 °F 71 °F  
Max Temperature 93 °F 81 °F 94 °F (1944)
Min Temperature 66 °F 61 °F 45 °F (1964)
Degree Days  
Heating Degree Days 0 0  
Month to date heating degree days 0  
Since 1 June heating degree days 55  
Since 1 July heating degree days 6  
Cooling Degree Days 14 6  
Month to date cooling degree days 93  
Year to date cooling degree days 492  
Since 1 June cooling degree days 450  
Growing Degree Days 30 (Base 50)    
Moisture  
Dew Point 65 °F    
Average Humidity 67    
Maximum Humidity 96    
Minimum Humidity 34    
Precipitation  
Precipitation 0.00 in 0.11 in 2.77 in (2012)
Month to date precipitation 1.65  
Year to date precipitation 25.29  
Snow  
Snow 0.00 in 0.00 in - ()
Month to date snowfall 0.0  
Since 1 June snowfall 0.0  
Since 1 July snowfall 0.0  
Snow Depth -    
Sea Level Pressure  
Sea Level Pressure 30.17 in    
Wind  
Wind Speed 5 mph (SSW)    
Max Wind Speed 10 mph    
Max Gust Speed -    
Visibility 8 miles    
Events      
T = Trace of Precipitation, MM = Missing Value Source: NWS Daily Summary

Daily Weather History Graph

Daily Weather History Graph

Search for Another Location

Airport or City:

Trip Planner

Search our weather history database for the weather conditions in past years. The results will help you decide how hot, cold, wet, or windy it might be!

Date:

Astronomy

Aug. 14, 1959 Rise Set
Actual Time 6:33 AM EDT 8:26 PM EDT
Civil Twilight 6:04 AM EDT 8:55 PM EDT
Nautical Twilight 5:28 AM EDT 9:31 PM EDT
Astronomical Twilight 4:49 AM EDT 10:10 PM EDT
Moon 5:17 PM EDT (8/14) 2:28 AM EDT (8/14)
Length of Visible Light 14h 51m
Length of Day
13h 52m
Waxing Gibbous, 82% of the Moon is Illuminated
Aug 14
Waxing Gibbous
Aug 18
Full
Aug 26
Last Quarter
Sep 2
New
Sep 9
First Quarter

Hourly Weather History & Observations

Time (EDT) Temp. Heat Index Dew Point Humidity Pressure Visibility Wind Dir Wind Speed Gust Speed Precip Events Conditions
12:00 AM 72.0 °F - 68.0 °F 87% 30.20 in 7.0 mi Calm Calm - N/A   Drizzle
1:00 AM 71.1 °F - 68.0 °F 90% 30.20 in 7.0 mi South 4.6 mph - N/A   Drizzle
2:00 AM 70.0 °F - 66.9 °F 90% 30.19 in 7.0 mi South 5.8 mph - N/A   Drizzle
3:00 AM 68.0 °F - 66.0 °F 93% 30.18 in 7.0 mi South 4.6 mph - N/A   Drizzle
4:00 AM 68.0 °F - 66.0 °F 93% 30.18 in 7.0 mi South 3.5 mph - N/A   Drizzle
5:00 AM 66.9 °F - 64.9 °F 93% 30.18 in 10.0 mi SSW 4.6 mph - N/A   Drizzle
6:00 AM 66.9 °F - 64.9 °F 93% 30.18 in 4.0 mi South 3.5 mph - N/A   Drizzle
7:00 AM 66.0 °F - 64.9 °F 96% 30.20 in 4.0 mi South 4.6 mph - N/A   Drizzle
8:00 AM 68.0 °F - 66.0 °F 93% 30.21 in 4.0 mi SSE 5.8 mph - N/A   Drizzle
9:00 AM 73.9 °F - 68.0 °F 82% 30.21 in 4.0 mi South 6.9 mph - N/A   Drizzle
10:00 AM 79.0 °F - 68.0 °F 69% 30.21 in 5.0 mi SSW 6.9 mph - N/A   Drizzle
11:00 AM 82.9 °F 85.0 °F 66.0 °F 56% 30.21 in 7.0 mi SSW 4.6 mph - N/A   Drizzle
12:00 PM 86.0 °F 88.8 °F 66.9 °F 53% 30.21 in 8.0 mi South 4.6 mph - N/A   Drizzle
1:00 PM 89.1 °F 90.3 °F 64.0 °F 43% 30.20 in 10.0 mi SSE 6.9 mph - N/A   Drizzle
2:00 PM 90.0 °F 91.3 °F 64.0 °F 42% 30.18 in 10.0 mi WNW 6.9 mph - N/A   Drizzle
3:00 PM 91.0 °F 91.9 °F 63.0 °F 39% 30.17 in 10.0 mi West 5.8 mph - N/A   Drizzle
4:00 PM 93.0 °F 93.0 °F 61.0 °F 34% 30.16 in 10.0 mi West 8.1 mph - N/A   Drizzle
5:00 PM 89.1 °F 90.0 °F 63.0 °F 42% 30.15 in 10.0 mi WNW 10.4 mph - N/A   Drizzle
6:00 PM 89.1 °F 89.0 °F 61.0 °F 39% 30.13 in 10.0 mi SSW 9.2 mph - N/A   Drizzle
7:00 PM 88.0 °F 89.3 °F 64.0 °F 45% 30.12 in 10.0 mi SSW 6.9 mph - N/A   Drizzle
8:00 PM 84.0 °F 86.3 °F 66.0 °F 55% 30.12 in 10.0 mi SSW 6.9 mph - N/A   Drizzle
9:00 PM 81.0 °F 82.5 °F 64.0 °F 56% 30.11 in 10.0 mi South 6.9 mph - N/A   Drizzle
10:00 PM 78.1 °F - 64.0 °F 62% 30.13 in 10.0 mi South 6.9 mph - N/A   Drizzle
11:00 PM 75.0 °F - 64.9 °F 71% 30.15 in 10.0 mi South 8.1 mph - N/A   Drizzle